This demonstration page uses our WeatherBlox Daily Observations layout. Learn more.

38.89511, -77.03637

Hourly Observations for October 6, 2018

Temp ( °F °C ) Dew Point ( °F °C ) Humidity (%) Winds ( mph kmh ) Pressure ( in mb ) Visibility ( mi km ) Precip ( " mm )
12:16 am 00:16 Cloudy 67 19.4 62 16.7 84 84 NE 5 7 30.18 1022 10 16.0934 0 0
12:52 am 00:52 Cloudy 67 19.4 62 16.7 84 84 NE 6 9 30.18 1022 7 11.26538 0 0
1:52 am 01:52 Cloudy 67 19.4 62 16.7 84 84 ENE 5 7 30.17 1022 7 11.26538 0 0
2:20 am 02:20 Cloudy with Mist and Fog 66 18.9 62 16.7 87 87 E 3 6 30.18 1022 6 9.65604 0 0
2:52 am 02:52 Cloudy with Mist and Fog 66 18.9 62 16.7 87 87 NNE 3 6 30.16 1021 6 9.65604 0 0
3:52 am 03:52 Cloudy with Haze 67 19.4 62 16.7 84 84 Calm 30.15 1021 5 8.0467 0 0
4:52 am 04:52 Cloudy with Mist and Fog 67 19.4 63 17.2 87 87 Calm 30.16 1021 6 9.65604 0 0
5:52 am 05:52 Cloudy 67 19.4 63 17.2 87 87 Calm 30.17 1022 7 11.26538 0 0
6:52 am 06:52 Cloudy 68 20 64 17.8 87 87 Calm 30.17 1022 7 11.26538 0 0
7:52 am 07:52 Cloudy with Mist and Fog 68 20 64 17.8 87 87 Calm 30.19 1022 6 9.65604 0 0
8:28 am 08:28 Cloudy 69 20.6 64 17.8 84 84 Calm 30.21 1023 7 11.26538 0 0
8:52 am 08:52 Cloudy 69 20.6 64 17.8 84 84 Calm 30.2 1023 7 11.26538 0 0
9:01 am 09:01 Cloudy 69 20.6 64 17.8 84 84 Calm 30.21 1023 7 11.26538 0 0
9:26 am 09:26 Cloudy 70 21.1 64 17.8 82 82 Calm 30.21 1023 8 12.87472 0 0
9:52 am 09:52 Cloudy 70 21.1 65 18.3 84 84 Calm 30.2 1023 9 14.48406 0 0
10:52 am 10:52 Cloudy 72 22.2 65 18.3 79 79 SSW 6 9 30.21 1023 10 16.0934 0 0
11:52 am 11:52 Cloudy 73 22.8 66 18.9 79 79 S 8 13 30.2 1023 10 16.0934 0 0
12:52 pm 12:52 Cloudy 73 22.8 66 18.9 79 79 S 7 11 30.2 1023 10 16.0934 0 0
1:52 pm 13:52 Cloudy 74 23.3 66 18.9 76 76 S 9 15 30.19 1022 10 16.0934 0 0
2:52 pm 14:52 Cloudy 74 23.3 67 19.4 79 79 S 8 13 30.17 1022 10 16.0934 0 0
3:52 pm 15:52 Cloudy 75 23.9 66 18.9 74 74 S 7 11 30.16 1021 10 16.0934 0 0
4:52 pm 16:52 Cloudy 75 23.9 67 19.4 76 76 S 6 9 30.16 1021 10 16.0934 0 0
5:52 pm 17:52 Cloudy 75 23.9 66 18.9 74 74 S 7 11 30.16 1021 10 16.0934 0 0
6:52 pm 18:52 Cloudy 74 23.3 67 19.4 79 79 S 7 11 30.16 1022 10 16.0934 0 0
7:52 pm 19:52 Cloudy 74 23.3 67 19.4 79 79 SSW 6 9 30.18 1022 10 16.0934 0 0
8:52 pm 20:52 Mostly Cloudy 73 22.8 67 19.4 81 81 Calm 30.19 1022 10 16.0934 0 0
9:52 pm 21:52 Cloudy 73 22.8 67 19.4 81 81 Calm 30.2 1023 10 16.0934 0 0
10:16 pm 22:16 Cloudy 73 22.8 68 20 84 84 S 6 9 30.18 1022 10 16.0934 0 0
10:52 pm 22:52 Cloudy 73 22.8 68 20 84 84 S 6 9 30.19 1022 10 16.0934 0 0
11:37 pm 23:37 Cloudy 73 22.8 68 20 84 84 S 6 9 30.18 1022 10 16.0934 0 0
11:52 pm 23:52 Cloudy 73 22.8 68 20 84 84 S 5 7 30.17 1022 10 16.0934 0 0

Powered by AerisWeather